DW4839 Weather Reports


Display with metric or nautical units.
time (UTC)temp
F
wind
direction
speed
MPH
gust
MPH
rain 1hr
in
rain 24hr
in
rain mn
in
humidity
%
barometer
mb
20210723220543 78 342 6.0 12.0 0.00 0.00 0.00 26 1023.6
20210723220129 78 314 2.0 12.0 0.00 0.00 0.00 25 1023.7
20210723215544 77 360 3.0 14.0 0.00 0.00 0.00 30 1023.8
20210723215042 77 317 5.0 14.0 0.00 0.00 0.00 30 1023.8
20210723214633 78 350 2.0 10.0 0.00 0.00 0.00 30 1024.0
20210723214044 77 329 2.0 10.0 0.00 0.00 0.00 30 1024.0
20210723213546 77 58 3.0 10.0 0.00 0.00 0.00 28 1024.1
20210723213149 77 315 2.0 8.0 0.00 0.00 0.00 33 1024.1
20210723212643 77 11 4.0 8.0 0.00 0.00 0.00 28 1024.2
20210723212045 76 5 3.0 8.0 0.00 0.00 0.00 31 1024.2
20210723211712 77 9 2.0 8.0 0.00 0.00 0.00 27 1024.2
20210723211045 76 47 3.0 8.0 0.00 0.00 0.00 31 1024.3
20210723210541 76 48 2.0 8.0 0.00 0.00 0.00 31 1024.2
20210723210215 76 15 3.0 7.0 0.00 0.00 0.00 31 1024.3
20210723205545 75 10 2.0 6.0 0.00 0.00 0.00 34 1024.3
20210723205102 76 352 3.0 6.0 0.00 0.00 0.00 33 1024.4
20210723204636 75 360 1.0 9.0 0.00 0.00 0.00 37 1024.4
20210723204047 75 319 1.0 9.0 0.00 0.00 0.00 36 1024.4
20210723203544 74 10 1.0 5.0 0.00 0.00 0.00 38 1024.5
20210723203216 76 221 1.0 10.0 0.00 0.00 0.00 35 1024.4
20210723202549 75 32 3.0 10.0 0.00 0.00 0.00 37 1024.4
20210723202045 74 9 5.0 10.0 0.00 0.00 0.00 34 1024.4
20210723201607 74 5 2.0 8.0 0.00 0.00 0.00 38 1024.5
20210723201045 74 43 2.0 8.0 0.00 0.00 0.00 37 1024.6
20210723200602 73 244 1.0 8.0 0.00 0.00 0.00 39 1024.6
20210723200141 73 39 2.0 10.0 0.00 0.00 0.00 40 1024.7
20210723195550 72 25 5.0 10.0 0.00 0.00 0.00 44 1024.7
20210723195100 72 57 4.0 10.0 0.00 0.00 0.00 43 1024.7
20210723194624 72 55 3.0 9.0 0.00 0.00 0.00 44 1024.9
20210723194050 73 15 2.0 9.0 0.00 0.00 0.00 46 1024.7
20210723193612 72 51 1.0 6.0 0.00 0.00 0.00 48 1024.9
20210723193204 72 327 2.0 10.0 0.00 0.00 0.00 47 1024.8
20210723192546 72 28 3.0 10.0 0.00 0.00 0.00 45 1024.9
20210723192050 71 59 3.0 7.0 0.00 0.00 0.00 48 1024.9
20210723191636 72 352 3.0 10.0 0.00 0.00 0.00 50 1024.9
20210723191048 70 19 3.0 10.0 0.00 0.00 0.00 51 1024.9
20210723190547 70 20 6.0 9.0 0.00 0.00 0.00 52 1024.9
20210723190150 70 24 3.0 9.0 0.00 0.00 0.00 55 1024.8
20210723185542 70 352 3.0 11.0 0.00 0.00 0.00 55 1024.9
20210723185110 69 28 4.0 11.0 0.00 0.00 0.00 55 1025.0
20210723184712 69 21 5.0 10.0 0.00 0.00 0.00 55 1025.1
20210723184044 69 21 3.0 9.0 0.00 0.00 0.00 53 1025.2
20210723183550 70 15 3.0 9.0 0.00 0.00 0.00 53 1025.3
20210723183134 69 140 2.0 10.0 0.00 0.00 0.00 54 1025.2
20210723182609 68 32 3.0 10.0 0.00 0.00 0.00 56 1025.3
20210723182109 67 10 3.0 9.0 0.00 0.00 0.00 57 1025.2
20210723181606 68 13 3.0 9.0 0.00 0.00 0.00 57 1025.2
20210723181045 67 39 2.0 9.0 0.00 0.00 0.00 57 1025.2
20210723180549 68 13 4.0 9.0 0.00 0.00 0.00 55 1025.2
20210723180137 68 350 1.0 8.0 0.00 0.00 0.00 57 1025.2
20210723175545 66 73 2.0 8.0 0.00 0.00 0.00 57 1025.2
20210723175045 66 63 4.0 9.0 0.00 0.00 0.00 59 1025.1
20210723174605 67 24 4.0 9.0 0.00 0.00 0.00 57 1025.1
20210723174045 66 9 2.0 9.0 0.00 0.00 0.00 60 1025.2
20210723173547 66 30 2.0 9.0 0.00 0.00 0.00 60 1025.1
20210723173124 65 35 3.0 9.0 0.00 0.00 0.00 62 1025.2
20210723172546 64 26 4.0 9.0 0.00 0.00 0.00 62 1025.1
20210723172056 65 352 3.0 8.0 0.00 0.00 0.00 64 1025.2
20210723171645 65 28 3.0 9.0 0.00 0.00 0.00 64 1025.1
20210723171045 64 32 4.0 9.0 0.00 0.00 0.00 63 1025.0
20210723170557 64 22 3.0 9.0 0.00 0.00 0.00 65 1025.1
20210723170156 63 5 4.0 9.0 0.00 0.00 0.00 66 1025.1
20210723165547 63 5 3.0 8.0 0.00 0.00 0.00 66 1025.2
20210723165045 63 22 3.0 8.0 0.00 0.00 0.00 68 1025.1
20210723164646 63 47 4.0 8.0 0.00 0.00 0.00 66 1025.1
20210723164048 63 49 3.0 10.0 0.00 0.00 0.00 67 1025.1
20210723163546 62 30 3.0 10.0 0.00 0.00 0.00 66 1025.0
20210723163152 62 21 2.0 7.0 0.00 0.00 0.00 68 1025.0
20210723162544 62 15 2.0 5.0 0.00 0.00 0.00 69 1025.1
20210723162045 62 304 3.0 12.0 0.00 0.00 0.00 69 1025.1
20210723161650 61 42 4.0 12.0 0.00 0.00 0.00 72 1025.1
20210723161048 60 36 3.0 8.0 0.00 0.00 0.00 71 1025.1
20210723160545 60 15 3.0 8.0 0.00 0.00 0.00 72 1025.0
20210723160157 60 49 2.0 8.0 0.00 0.00 0.00 73 1025.0
20210723155545 60 19 4.0 10.0 0.00 0.00 0.00 73 1025.0
20210723155106 60 352 3.0 11.0 0.00 0.00 0.00 74 1025.0
20210723154636 59 51 4.0 11.0 0.00 0.00 0.00 73 1025.1
20210723154045 59 5 4.0 9.0 0.00 0.00 0.00 76 1025.0
20210723153542 58 360 5.0 10.0 0.00 0.00 0.00 77 1025.0
20210723153149 58 9 5.0 10.0 0.00 0.00 0.00 77 1024.9
20210723152544 58 26 5.0 9.0 0.00 0.00 0.00 78 1024.8
20210723152044 57 11 5.0 9.0 0.00 0.00 0.00 78 1024.8
20210723151814 58 350 4.0 10.0 0.00 0.00 0.00 78 1024.7
20210723151049 58 16 5.0 10.0 0.00 0.00 0.00 77 1024.7
20210723150552 58 35 3.0 9.0 0.00 0.00 0.00 78 1024.7
20210723150151 58 13 4.0 9.0 0.00 0.00 0.00 78 1024.7
20210723145547 58 30 3.0 9.0 0.00 0.00 0.00 79 1024.7
20210723145050 57 349 2.0 8.0 0.00 0.00 0.00 80 1024.6
20210723144612 57 336 3.0 7.0 0.00 0.00 0.00 80 1024.6
20210723144055 56 11 3.0 7.0 0.00 0.00 0.00 81 1024.6
20210723143606 56 352 3.0 7.0 0.00 0.00 0.00 82 1024.5
20210723143126 56 345 1.0 7.0 0.00 0.00 0.00 83 1024.5
20210723142555 55 344 3.0 7.0 0.00 0.00 0.00 83 1024.6
20210723142044 55 5 3.0 8.0 0.00 0.00 0.00 84 1024.7
20210723141737 55 22 3.0 8.0 0.00 0.00 0.00 84 1024.6
20210723141047 54 20 4.0 8.0 0.00 0.00 0.00 85 1024.6
20210723140544 54 360 5.0 9.0 0.00 0.00 0.00 85 1024.6
20210723140223 54 360 4.0 10.0 0.00 0.00 0.00 86 1024.6
20210723135552 53 9 5.0 10.0 0.00 0.00 0.00 86 1024.5
20210723135046 53 11 7.0 10.0 0.00 0.00 0.00 87 1024.4
20210723134556 53 360 6.0 10.0 0.00 0.00 0.00 87 1024.4
20210723134101 52 5 5.0 10.0 0.00 0.00 0.00 87 1024.3
20210723133545 52 20 5.0 10.0 0.00 0.00 0.00 88 1024.3
20210723133213 52 5 5.0 9.0 0.00 0.00 0.00 88 1024.2
20210723132554 52 350 4.0 8.0 0.00 0.00 0.00 88 1024.2
20210723132104 52 352 4.0 9.0 0.00 0.00 0.00 88 1024.2
20210723131618 52 352 4.0 9.0 0.00 0.00 0.00 88 1024.2
20210723131046 52 360 4.0 10.0 0.00 0.00 0.00 88 1024.3
20210723130550 52 350 4.0 10.0 0.00 0.00 0.00 88 1024.1
20210723130137 52 5 3.0 8.0 0.00 0.00 0.00 88 1024.2
20210723125547 52 9 3.0 8.0 0.00 0.00 0.00 88 1024.1
20210723125046 51 343 3.0 8.0 0.00 0.00 0.00 87 1024.1
20210723124608 51 9 2.0 8.0 0.00 0.00 0.00 87 1024.1
20210723124043 51 9 2.0 5.0 0.00 0.00 0.00 87 1024.1
20210723123600 51 360 2.0 10.0 0.00 0.00 0.00 87 1024.1
20210723123145 51 5 2.0 10.0 0.00 0.00 0.00 87 1024.0
20210723122545 51 360 2.0 7.0 0.00 0.00 0.00 87 1024.0
20210723122046 51 9 2.0 8.0 0.00 0.00 0.00 87 1024.0
20210723121557 51 340 3.0 8.0 0.00 0.00 0.00 86 1024.0
20210723121102 52 5 2.0 6.0 0.00 0.00 0.00 85 1024.0
20210723120550 52 5 1.0 4.0 0.00 0.00 0.00 85 1024.0
20210723120119 52 360 1.0 5.0 0.00 0.00 0.00 85 1024.0
20210723115546 52 5 2.0 7.0 0.00 0.00 0.00 85 1023.9
20210723115043 52 5 1.0 7.0 0.00 0.00 0.00 85 1023.9
20210723114719 52 5 2.0 4.0 0.00 0.00 0.00 84 1023.8
20210723114106 52 10 1.0 7.0 0.00 0.00 0.00 85 1023.7
20210723113545 52 360 2.0 7.0 0.00 0.00 0.00 85 1023.7
20210723113116 52 5 2.0 5.0 0.00 0.00 0.00 85 1023.6
20210723112555 52 9 1.0 5.0 0.00 0.00 0.00 84 1023.6
20210723112046 52 9 2.0 5.0 0.00 0.00 0.00 84 1023.6
20210723111632 52 5 2.0 5.0 0.00 0.00 0.00 84 1023.6
20210723111043 53 9 1.0 5.0 0.00 0.00 0.00 84 1023.5
20210723110544 53 44 2.0 7.0 0.00 0.00 0.00 84 1023.5
20210723110134 53 5 2.0 7.0 0.00 0.00 0.00 84 1023.5
20210723105543 53 5 2.0 7.0 0.00 0.00 0.00 84 1023.5
20210723105100 53 5 2.0 7.0 0.00 0.00 0.00 84 1023.4
20210723104709 53 5 2.0 5.0 0.00 0.00 0.00 83 1023.4
20210723104045 53 21 2.0 7.0 0.00 0.00 0.00 83 1023.4
20210723103556 53 16 2.0 7.0 0.00 0.00 0.00 83 1023.4
20210723103132 53 5 2.0 5.0 0.00 0.00 0.00 82 1023.3
20210723102545 53 9 2.0 4.0 0.00 0.00 0.00 82 1023.3
20210723102044 53 0 1.0 4.0 0.00 0.00 0.00 81 1023.3
20210723101623 53 0 0.0 4.0 0.00 0.00 0.00 81 1023.4
20210723101054 53 0 2.0 4.0 0.00 0.00 0.00 80 1023.3
20210723100544 54 352 1.0 3.0 0.00 0.00 0.00 80 1023.2
20210723100136 54 325 1.0 4.0 0.00 0.00 0.00 80 1023.2
20210723095554 54 325 1.0 8.0 0.00 0.00 0.00 80 1023.2
20210723095138 54 346 2.0 8.0 0.00 0.00 0.00 80 1023.1
20210723094816 54 348 1.0 4.0 0.00 0.00 0.00 79 1023.1
20210723094049 54 346 1.0 5.0 0.00 0.00 0.00 79 1023.1
20210723093543 54 5 1.0 5.0 0.00 0.00 0.00 79 1022.9
20210723093225 54 348 1.0 4.0 0.00 0.00 0.00 78 1022.9
20210723092608 55 346 1.0 4.0 0.00 0.00 0.00 78 1022.9
20210723092108 55 360 1.0 4.0 0.00 0.00 0.00 78 1023.0
20210723091654 55 9 1.0 6.0 0.00 0.00 0.00 77 1022.9
20210723091045 55 352 2.0 6.0 0.00 0.00 0.00 77 1023.0
20210723090546 56 349 1.0 3.0 0.00 0.00 0.00 76 1023.0
20210723090119 56 345 0.0 3.0 0.00 0.00 0.00 76 1023.1
20210723085545 56 0 1.0 3.0 0.00 0.00 0.00 76 1023.0
20210723085046 56 0 0.0 5.0 0.00 0.00 0.00 75 1023.0
20210723084651 56 0 2.0 7.0 0.00 0.00 0.00 75 1022.9
20210723084051 56 335 2.0 7.0 0.00 0.00 0.00 75 1022.9
20210723083551 57 360 2.0 9.0 0.00 0.00 0.00 75 1022.9
20210723083111 57 352 2.0 9.0 0.00 0.00 0.00 74 1022.9
20210723082546 57 319 2.0 8.0 0.00 0.00 0.00 74 1022.9
20210723082045 57 22 3.0 10.0 0.00 0.00 0.00 74 1022.9
20210723081558 57 11 4.0 10.0 0.00 0.00 0.00 74 1022.8
20210723081103 57 13 3.0 12.0 0.00 0.00 0.00 73 1022.8
20210723080628 58 352 4.0 12.0 0.00 0.00 0.00 73 1022.8
20210723080114 58 352 3.0 9.0 0.00 0.00 0.00 73 1022.8
20210723075544 58 344 3.0 11.0 0.00 0.00 0.00 73 1022.8
20210723075045 58 340 4.0 13.0 0.00 0.00 0.00 73 1022.7
20210723074612 58 5 4.0 13.0 0.00 0.00 0.00 73 1022.7
20210723074051 58 340 4.0 9.0 0.00 0.00 0.00 73 1022.6
20210723073614 58 348 3.0 9.0 0.00 0.00 0.00 73 1022.5
20210723073113 58 342 3.0 11.0 0.00 0.00 0.00 74 1022.4
20210723072545 59 342 4.0 11.0 0.00 0.00 0.00 73 1022.4
20210723072106 59 338 4.0 9.0 0.00 0.00 0.00 73 1022.4
20210723071650 59 351 4.0 11.0 0.00 0.00 0.00 74 1022.4
20210723071043 59 346 4.0 11.0 0.00 0.00 0.00 73 1022.3
20210723070542 59 341 3.0 10.0 0.00 0.00 0.00 74 1022.4
20210723070205 59 332 4.0 10.0 0.00 0.00 0.00 74 1022.3
20210723065546 59 341 4.0 10.0 0.00 0.00 0.00 74 1022.2
20210723065051 60 5 2.0 6.0 0.00 0.00 0.00 74 1022.3
20210723064611 60 347 4.0 6.0 0.00 0.00 0.00 73 1022.2
20210723064046 60 339 2.0 8.0 0.00 0.00 0.00 73 1022.2
20210723063611 60 342 3.0 8.0 0.00 0.00 0.00 73 1022.2
20210723063142 60 348 3.0 9.0 0.00 0.00 0.00 73 1022.2
20210723062553 60 331 5.0 9.0 0.00 0.00 0.00 73 1022.2
20210723062109 61 338 3.0 7.0 0.00 0.00 0.00 73 1022.1
20210723061710 61 9 2.0 7.0 0.00 0.00 0.00 72 1022.1
20210723061051 61 334 2.0 7.0 0.00 0.00 0.00 72 1022.0
20210723060544 61 332 3.0 8.0 0.00 0.00 0.00 72 1021.9
20210723060108 61 11 3.0 8.0 0.00 0.00 0.00 72 1022.0
20210723055546 62 332 3.0 8.0 0.00 0.00 0.00 72 1021.8
20210723055051 62 340 3.0 8.0 0.00 0.00 0.00 72 1021.8
20210723054640 62 342 2.0 8.0 0.00 0.00 0.00 72 1021.8
20210723054107 62 334 3.0 9.0 0.00 0.00 0.00 72 1021.7
20210723053545 62 360 3.0 9.0 0.00 0.00 0.00 71 1021.7
20210723053109 62 5 3.0 8.0 0.00 0.00 0.00 71 1021.7
20210723052558 62 9 3.0 7.0 0.00 0.00 0.00 71 1021.6
20210723052046 63 360 2.0 7.0 0.00 0.00 0.00 70 1021.6
20210723051558 63 336 2.0 6.0 0.00 0.00 0.00 70 1021.5
20210723051045 63 9 2.0 6.0 0.00 0.00 0.00 69 1021.5
20210723050601 63 5 2.0 5.0 0.00 0.00 0.00 69 1021.5
20210723050110 64 5 2.0 6.0 0.00 0.00 0.00 68 1021.3
20210723045556 64 348 2.0 6.0 0.00 0.00 0.00 67 1021.2
20210723045050 64 348 1.0 5.0 0.00 0.00 0.00 66 1021.3
20210723044619 65 360 1.0 4.0 0.00 0.00 0.00 66 1021.2
20210723044046 65 0 1.0 4.0 0.00 0.00 0.00 65 1021.1
20210723043544 65 5 1.0 4.0 0.00 0.00 0.00 65 1021.1
20210723043155 65 343 0.0 4.0 0.00 0.00 0.00 64 1021.0
20210723042543 66 18 0.0 8.0 0.00 0.00 0.00 63 1021.0
20210723042047 66 36 2.0 9.0 0.00 0.00 0.00 63 1020.8
20210723041649 66 319 3.0 9.0 0.00 0.00 0.00 63 1020.8
20210723041044 66 348 2.0 8.0 0.00 0.00 0.00 62 1020.8
20210723040546 66 5 2.0 8.0 0.00 0.00 0.00 61 1020.6
20210723040238 67 343 1.0 7.0 0.00 0.00 0.00 61 1020.6
20210723035544 67 352 2.0 8.0 0.00 0.00 0.00 60 1020.6
20210723035047 67 348 1.0 8.0 0.00 0.00 0.00 60 1020.6
20210723034621 67 352 1.0 6.0 0.00 0.00 0.00 59 1020.6
20210723034046 67 5 1.0 7.0 0.00 0.00 0.00 58 1020.4
20210723033550 68 306 1.0 7.0 0.00 0.00 0.00 58 1020.4
20210723033142 68 360 0.0 3.0 0.00 0.00 0.00 56 1020.3
20210723032553 68 75 0.0 4.0 0.00 0.00 0.00 55 1020.3
20210723032046 68 300 1.0 4.0 0.00 0.00 0.00 54 1020.3
20210723031600 68 5 0.0 8.0 0.00 0.00 0.00 53 1020.3
20210723031058 69 0 0.0 8.0 0.00 0.00 0.00 53 1020.3
20210723030543 69 331 0.0 4.0 0.00 0.00 0.00 54 1020.3
20210723030120 69 0 1.0 5.0 0.00 0.00 0.00 54 1020.3
20210723025559 69 9 0.0 11.0 0.00 0.00 0.00 55 1020.3
20210723025044 69 346 2.0 11.0 0.00 0.00 0.00 54 1020.2
20210723024645 69 360 1.0 5.0 0.00 0.00 0.00 53 1020.3
20210723024046 70 11 1.0 10.0 0.00 0.00 0.00 53 1020.2
20210723023546 70 360 2.0 10.0 0.00 0.00 0.00 52 1020.1
20210723023159 70 0 2.0 8.0 0.00 0.00 0.00 51 1020.1
20210723022544 70 320 2.0 8.0 0.00 0.00 0.00 50 1020.0
20210723022043 70 342 3.0 8.0 0.00 0.00 0.00 48 1020.0
20210723021630 70 47 1.0 6.0 0.00 0.00 0.00 48 1020.0
20210723021043 71 348 2.0 5.0 0.00 0.00 0.00 48 1019.9
20210723020618 71 22 1.0 10.0 0.00 0.00 0.00 46 1019.8
20210723020145 71 0 2.0 11.0 0.00 0.00 0.00 47 1019.8
20210723015543 71 360 5.0 11.0 0.00 0.00 0.00 47 1019.9
20210723015046 71 286 1.0 5.0 0.00 0.00 0.00 47 1020.0
20210723014643 71 347 1.0 8.0 0.00 0.00 0.00 46 1020.0
20210723014043 71 301 3.0 8.0 0.00 0.00 0.00 45 1020.0
20210723013546 71 19 1.0 14.0 0.00 0.00 0.00 45 1020.0
20210723013114 71 0 5.0 14.0 0.00 0.00 0.00 45 1020.0
20210723012552 71 350 4.0 13.0 0.00 0.00 0.00 45 1020.0
20210723012046 71 5 3.0 9.0 0.00 0.00 0.00 44 1020.0
20210723011626 72 360 2.0 15.0 0.00 0.00 0.00 45 1020.0
20210723011043 72 339 4.0 15.0 0.00 0.00 0.00 45 1020.0
20210723010543 73 21 1.0 11.0 0.00 0.00 0.00 44 1020.1
20210723010129 73 360 4.0 11.0 0.00 0.00 0.00 43 1020.0
20210723005543 73 325 2.0 10.0 0.00 0.00 0.00 44 1020.0
20210723005043 74 38 2.0 10.0 0.00 0.00 0.00 44 1020.0
20210723004629 74 349 2.0 8.0 0.00 0.00 0.00 43 1020.1
20210723004046 74 20 2.0 8.0 0.00 0.00 0.00 42 1020.1
20210723003556 73 290 2.0 8.0 0.00 0.00 0.00 43 1020.1
20210723003140 74 14 2.0 8.0 0.00 0.00 0.00 41 1020.1
20210723002603 74 5 3.0 8.0 0.00 0.00 0.00 41 1019.9
20210723002052 75 37 2.0 9.0 0.00 0.00 0.00 41 1020.0
20210723001631 74 0 3.0 11.0 0.00 0.00 0.00 40 1020.0
20210723001047 74 5 3.0 11.0 0.00 0.00 0.00 41 1020.1
20210723000546 75 9 2.0 12.0 0.00 0.00 0.00 41 1020.1
20210723000149 74 9 2.0 12.0 0.00 0.00 0.00 40 1020.1
20210722235600 74 269 2.0 7.0 0.00 0.00 0.00 42 1020.1
20210722235045 75 53 2.0 7.0 0.00 0.00 0.00 40 1020.0
20210722234629 75 332 2.0 11.0 0.00 0.00 0.00 39 1020.2
20210722234045 75 352 3.0 11.0 0.00 0.00 0.00 40 1020.2
20210722233645 75 9 3.0 10.0 0.00 0.00 0.00 38 1020.3
20210722233105 75 5 2.0 10.0 0.00 0.00 0.00 41 1020.2
20210722232545 75 299 3.0 14.0 0.00 0.00 0.00 39 1020.2
20210722232046 74 21 5.0 14.0 0.00 0.00 0.00 39 1020.3
20210722231628 74 336 4.0 13.0 0.00 0.00 0.00 38 1020.2
20210722231057 74 12 4.0 13.0 0.00 0.00 0.00 37 1020.4
20210722230557 75 335 4.0 13.0 0.00 0.00 0.00 37 1020.5
20210722230123 75 352 3.0 8.0 0.00 0.00 0.00 39 1020.5
20210722225543 75 101 1.0 8.0 0.00 0.00 0.00 40 1020.4
20210722225049 75 333 2.0 11.0 0.00 0.00 0.00 41 1020.4
20210722224556 74 55 6.0 11.0 0.00 0.00 0.00 37 1020.5
20210722224045 74 349 3.0 12.0 0.00 0.00 0.00 38 1020.4
20210722223546 74 348 4.0 12.0 0.00 0.00 0.00 40 1020.5
20210722223259 74 61 2.0 8.0 0.00 0.00 0.00 39 1020.5
20210722222613 74 360 4.0 12.0 0.00 0.00 0.00 39 1020.6
20210722222101 74 258 5.0 12.0 0.00 0.00 0.00 42 1020.6
20210722221618 74 360 3.0 12.0 0.00 0.00 0.00 42 1020.7
20210722221046 73 63 2.0 13.0 0.00 0.00 0.00 41 1020.8